{"data":{"norad_id":51868,"epoch":"2026-05-24T22:40:51.913920Z","epoch_age_seconds":80538,"freshness":"FRESH","line1":"1 51868U 22022S   26144.94504530  .00000740  00000+0  64599-4 0  9990","line2":"2 51868  53.2150  26.7987 0001448  86.0105 274.1052 15.08839810234623","mean_motion":15.0883981,"eccentricity":0.0001448,"inclination_deg":53.215,"raan_deg":26.7987,"arg_perigee_deg":86.0105,"mean_anomaly_deg":274.1052,"bstar":6.4599e-5,"rev_number":23462,"period_min":95.437566695698,"perigee_km":538.74226055374,"apogee_km":540.74567888257,"semimajor_km":6917.8809697182,"source":"CELESTRAK","updated_at":"2026-05-25T13:38:16.962858Z"}}